Weather History for KCJR - December, 2012

Change the Weather History Date:

Friday, December 28, 2012

  Actual Average (KOMH) Record (KOMH)
Temperature  
Mean Temperature 34 °F -  
Max Temperature 42 °F 42 °F 70 °F (1971)
Min Temperature 26 °F 25 °F 8 °F (1966)
Degree Days  
Heating Degree Days 31    
Moisture  
Dew Point 28 °F    
Average Humidity 78    
Maximum Humidity 100    
Minimum Humidity 53    
Precipitation  
Precipitation 0.00 in - - ()
Sea Level Pressure  
Sea Level Pressure 30.09 in    
Wind  
Wind Speed 1 mph (NW)    
Max Wind Speed 6 mph    
Max Gust Speed -    
Visibility 10 miles    
Events      
Averages and records for this station are not official NWS values.
T = Trace of Precipitation, MM = Missing Value Source: NWS Daily Summary

Daily Weather History Graph

Daily Weather History Graph

Search for Another Location

Airport or City:

Trip Planner

Search our weather history database for the weather conditions in past years. The results will help you decide how hot, cold, wet, or windy it might be!

Date:

Astronomy

Dec. 28, 2012 Rise Set
Actual Time 7:28 AM EST 4:58 PM EST
Civil Twilight 6:58 AM EST 5:28 PM EST
Nautical Twilight 6:25 AM EST 6:01 PM EST
Astronomical Twilight 5:52 AM EST 6:33 PM EST
Moon 5:32 PM EST (12/28) 7:21 AM EST (12/28)
Length of Visible Light 10h 29m
Length of Day
9h 30m
Full, 100% of the Moon is Illuminated
Dec 28
Full
Jan 4
Last Quarter
Jan 11
New
Jan 18
First Quarter
Jan 26
Full

Hourly Weather History & Observations

Time (EST) Temp. Windchill Dew Point Humidity Pressure Visibility Wind Dir Wind Speed Gust Speed Precip Events Conditions
12:35 AM 30.2 °F - 24.8 °F 80% 30.04 in 10.0 mi Calm Calm - N/A   Clear
12:55 AM 32.0 °F - 26.6 °F 80% 30.04 in 10.0 mi Calm Calm - N/A   Clear
1:15 AM 32.0 °F - 26.6 °F 80% 30.04 in 10.0 mi Calm Calm - N/A   Clear
1:35 AM 30.2 °F 26.7 °F 26.6 °F 86% 30.04 in 10.0 mi NW 3.5 mph - N/A   Clear
1:55 AM 32.0 °F 28.7 °F 26.6 °F 80% 30.04 in 10.0 mi NW 3.5 mph - N/A   Clear
2:15 AM 30.2 °F - 26.6 °F 86% 30.05 in 10.0 mi Calm Calm - N/A   Clear
2:35 AM 30.2 °F 24.3 °F 26.6 °F 86% 30.05 in 10.0 mi WNW 5.8 mph - N/A   Clear
2:55 AM 33.8 °F - 26.6 °F 75% 30.07 in 10.0 mi Calm Calm - N/A   Clear
3:15 AM 35.6 °F 31.7 °F 26.6 °F 70% 30.07 in 10.0 mi NW 4.6 mph - N/A   Clear
3:35 AM 35.6 °F - 26.6 °F 70% 30.08 in 10.0 mi Calm Calm - N/A   Clear
3:55 AM 30.2 °F - 26.6 °F 86% 30.08 in 10.0 mi Calm Calm - N/A   Clear
4:15 AM 30.2 °F - 26.6 °F 86% 30.09 in 10.0 mi Calm Calm - N/A   Clear
4:35 AM 28.4 °F - 26.6 °F 93% 30.08 in 10.0 mi Calm Calm - N/A   Clear
4:55 AM 28.4 °F 24.6 °F 26.6 °F 93% 30.08 in 10.0 mi NNW 3.5 mph - N/A   Clear
5:15 AM 28.4 °F - 26.6 °F 93% 30.08 in 10.0 mi Calm Calm - N/A   Clear
5:35 AM 28.4 °F - 26.6 °F 93% 30.10 in 10.0 mi Calm Calm - N/A   Clear
6:15 AM 28.4 °F - 28.4 °F 100% 30.10 in 10.0 mi Calm Calm - N/A   Clear
6:35 AM 26.6 °F - 26.6 °F 100% 30.10 in 10.0 mi Calm Calm - N/A   Clear
6:55 AM 26.6 °F - 26.6 °F 100% 30.11 in 10.0 mi Calm Calm - N/A   Clear
7:15 AM 28.4 °F - 26.6 °F 93% 30.12 in 10.0 mi Calm Calm - N/A   Clear
7:35 AM 26.6 °F - 26.6 °F 100% 30.12 in 10.0 mi Calm Calm - N/A   Clear
7:55 AM 28.4 °F - 28.4 °F 100% 30.13 in 10.0 mi Calm Calm - N/A   Clear
8:15 AM 28.4 °F - 28.4 °F 100% 30.12 in 10.0 mi Calm Calm - N/A   Clear
8:35 AM 30.2 °F - 28.4 °F 93% 30.12 in 10.0 mi Calm Calm - N/A   Clear
8:55 AM 33.8 °F - 30.2 °F 87% 30.13 in 10.0 mi Calm Calm - N/A   Clear
9:15 AM 35.6 °F - 26.6 °F 70% 30.14 in 10.0 mi Calm Calm - N/A   Clear
9:35 AM 37.4 °F 34.9 °F 28.4 °F 70% 30.15 in 10.0 mi North 3.5 mph - N/A   Clear
9:55 AM 37.4 °F 32.8 °F 28.4 °F 70% 30.15 in 10.0 mi NNE 5.8 mph - N/A   Clear
10:15 AM 39.2 °F 35.0 °F 26.6 °F 61% 30.15 in 10.0 mi North 5.8 mph - N/A   Clear
10:35 AM 39.2 °F 35.0 °F 26.6 °F 61% 30.15 in 10.0 mi NNE 5.8 mph - N/A   Clear
11:15 AM 42.8 °F - 26.6 °F 53% 30.15 in 10.0 mi Calm Calm - N/A   Clear
11:35 AM 41.0 °F - 26.6 °F 57% 30.14 in 10.0 mi Calm Calm - N/A   Clear
11:55 AM 42.8 °F - 26.6 °F 53% 30.13 in 10.0 mi Calm Calm - N/A   Clear
12:15 PM 42.8 °F - 26.6 °F 53% 30.11 in 10.0 mi Calm Calm - N/A   Clear
12:35 PM 42.8 °F - 26.6 °F 53% 30.11 in 10.0 mi Calm Calm - N/A   Clear
12:55 PM 42.8 °F - 28.4 °F 57% 30.09 in 10.0 mi Calm Calm - N/A   Clear
1:15 PM 42.8 °F 39.3 °F 28.4 °F 57% 30.10 in 10.0 mi WSW 5.8 mph - N/A   Clear
1:35 PM 42.8 °F 39.3 °F 28.4 °F 57% 30.11 in 10.0 mi WSW 5.8 mph - N/A   Clear
1:55 PM 42.8 °F 41.1 °F 28.4 °F 57% 30.10 in 10.0 mi SSW 3.5 mph - N/A   Clear
2:15 PM 42.8 °F 39.3 °F 28.4 °F 57% 30.10 in 10.0 mi SSW 5.8 mph - N/A   Clear
2:35 PM 42.8 °F 41.1 °F 28.4 °F 57% 30.09 in 10.0 mi South 3.5 mph - N/A   Clear
2:55 PM 42.8 °F - 28.4 °F 57% 30.08 in 10.0 mi Calm Calm - N/A   Clear
3:15 PM 42.8 °F - 28.4 °F 57% 30.09 in 10.0 mi Calm Calm - N/A   Clear
3:35 PM 42.8 °F - 28.4 °F 57% 30.09 in 10.0 mi Calm Calm - N/A   Clear
3:55 PM 42.8 °F - 28.4 °F 57% 30.09 in 10.0 mi Calm Calm - N/A   Clear
4:15 PM 42.8 °F - 28.4 °F 57% 30.08 in 10.0 mi Calm Calm - N/A   Clear
4:35 PM 39.2 °F - 28.4 °F 65% 30.06 in 10.0 mi Calm Calm - N/A   Clear
4:55 PM 37.4 °F - 28.4 °F 70% 30.06 in 10.0 mi Calm Calm - N/A   Clear
5:35 PM 35.6 °F - 28.4 °F 75% 30.07 in 10.0 mi Calm Calm - N/A   Clear
5:55 PM 35.6 °F - 28.4 °F 75% 30.07 in 10.0 mi Calm Calm - N/A   Clear
6:15 PM 33.8 °F - 28.4 °F 81% 30.07 in 10.0 mi Calm Calm - N/A   Clear
6:35 PM 33.8 °F - 28.4 °F 81% 30.08 in 10.0 mi Calm Calm - N/A   Clear
6:55 PM 33.8 °F - 28.4 °F 81% 30.07 in 10.0 mi Calm Calm - N/A   Clear
7:15 PM 33.8 °F - 28.4 °F 81% 30.08 in 10.0 mi Calm Calm - N/A   Clear
7:35 PM 32.0 °F - 28.4 °F 87% 30.08 in 10.0 mi Calm Calm - N/A   Clear
7:55 PM 32.0 °F - 30.2 °F 93% 30.08 in 10.0 mi Calm Calm - N/A   Clear
8:15 PM 32.0 °F - 30.2 °F 93% 30.08 in 10.0 mi Calm Calm - N/A   Clear
8:35 PM 33.8 °F - 28.4 °F 81% 30.09 in 10.0 mi Calm Calm - N/A   Clear
8:55 PM 33.8 °F - 30.2 °F 87% 30.09 in 10.0 mi Calm Calm - N/A   Clear
9:15 PM 32.0 °F - 30.2 °F 93% 30.08 in 10.0 mi Calm Calm - N/A   Clear
9:35 PM 33.8 °F - 30.2 °F 87% 30.08 in 10.0 mi Calm Calm - N/A   Clear
9:55 PM 32.0 °F - 30.2 °F 93% 30.06 in 10.0 mi Calm Calm - N/A   Clear
10:15 PM 33.8 °F - 30.2 °F 87% 30.06 in 10.0 mi Calm Calm - N/A   Clear
10:35 PM 33.8 °F - 28.4 °F 81% 30.06 in 10.0 mi Calm Calm - N/A   Clear
10:55 PM 33.8 °F - 28.4 °F 81% 30.05 in 10.0 mi Calm Calm - N/A   Clear
11:15 PM 33.8 °F - 30.2 °F 87% 30.05 in 10.0 mi Calm Calm - N/A   Clear
11:35 PM 33.8 °F - 30.2 °F 87% 30.04 in 10.0 mi Calm Calm - N/A   Clear
11:55 PM 33.8 °F - 32.0 °F 93% 30.05 in 10.0 mi Calm Calm - N/A   Clear